Simultaneous Nadir Overpasses (SNOs) Predictions

Prediction of SNOs between LANDSAT-8 and METOP-A Satellite Orbit:

Table of predicted SNOs for the next 14.0 days since TLE Epoch: 9/26/2014
Index Date (LANDSAT-8) Time (LANDSAT-8) Lat,Lon (LANDSAT-8) SZA (LANDSAT-8 ) Date (METOP-A) Time (METOP-A) Lat,Lon (METOP-A) SZA (METOP-A ) Distance(km) Time Diff (sec)
1 09/29/2014 03:24:23 -81.09, -11.68 94.33 09/29/2014 03:23:34 -81.10, -11.53 94.33 2.72 49
2 09/29/2014 04:13:48 81.12, 156.35 85.74 09/29/2014 04:14:14 81.11, 156.23 85.74 2.10 26
3 10/01/2014 22:58:45 -81.09, 54.76 93.22 10/01/2014 22:57:56 -81.10, 54.87 93.22 2.00 49
4 10/01/2014 23:48:10 81.12,-137.21 86.86 10/01/2014 23:48:36 81.11,-137.38 86.85 3.00 26
5 10/04/2014 18:33:09 -81.10, 121.27 92.10 10/04/2014 18:32:17 -81.10, 121.23 92.13 0.85 52
6 10/04/2014 19:22:34 81.13, -70.71 87.98 10/04/2014 19:22:56 81.12, -70.67 87.99 0.77 22
7 10/07/2014 14:07:38 -81.09,-172.53 91.03 10/07/2014 14:06:39 -81.09,-172.47 91.05 1.13 59
8 10/07/2014 14:57:03 81.11, -4.51 89.05 10/07/2014 14:57:18 81.12, -4.39 89.07 2.07 15
9 10/10/2014 09:42:10 -81.08,-106.27 89.96 10/10/2014 09:41:01 -81.09,-106.21 89.98 1.03 69




NCC Satellite Simultaneous Nadir Overpasses (SNOs) Prediction Service
